Hourly Data Report for August 18, 2017

TORONTO CITY
ONTARIO

43°40'00.000" N
79°24'00.000" W
112.50 m
6158355
71508
XTO

Download Data

Hourly Data (August 2017)
Hourly Data Report for August 18, 2017
TIME
LST
Temp Definition
°C
Dew Point Definition
°C
Rel Hum Definition
%
Precip. Amount Definition
mm

Wind Dir Definition
10's deg

Wind Spd Definition
km/h
Visibility Definition
km
Stn Press Definition
kPa
Hmdx Definition


Wind Chill Definition


Weather Definition


00:00 21.3 19.8 91 0.0 LegendMM LegendMM   99.26 29   LegendNANA
01:00 22.1 20.6 91 0.0 LegendMM LegendMM   99.21 30   LegendNANA
02:00 22.0 20.2 90 0.0 LegendMM LegendMM   99.18 30   LegendNANA
03:00 21.3 19.7 91 0.0 LegendMM LegendMM   99.17 29   LegendNANA
04:00 20.9 19.5 92 0.0 LegendMM LegendMM   99.17 28   LegendNANA
05:00 21.4 20.1 93 0.0 LegendMM LegendMM   99.22 29   LegendNANA
06:00 21.5 20.1 92 0.0 LegendMM LegendMM   99.23 29   LegendNANA
07:00 21.8 20.1 90 0.0 LegendMM LegendMM   99.26 29   LegendNANA
08:00 23.2 20.2 83 0.0 LegendMM LegendMM   99.25 31   LegendNANA
09:00 24.0 19.9 78 0.0 LegendMM LegendMM   99.23 31   LegendNANA
10:00 25.5 19.7 70 0.0 LegendMM LegendMM   99.24 33   LegendNANA
11:00 25.0 19.0 69 0.0 LegendMM LegendMM   99.22 32   LegendNANA
12:00 27.9 16.8 51 0.0 LegendMM LegendMM   99.18 33   LegendNANA
13:00 26.5 17.0 56 0.0 LegendMM LegendMM   99.18 32   LegendNANA
14:00 26.5 16.8 55 0.0 LegendMM LegendMM   99.19 32   LegendNANA
15:00 25.6 16.1 56 0.0 LegendMM LegendMM   99.21 30   LegendNANA
16:00 25.4 15.8 55 0.0 LegendMM LegendMM   99.23 30   LegendNANA
17:00 24.7 16.4 60 0.0 LegendMM LegendMM   99.25 30   LegendNANA
18:00 24.5 16.1 60 0.0 LegendMM LegendMM   99.29 29   LegendNANA
19:00 23.9 15.5 59 0.0 LegendMM LegendMM   99.36 28   LegendNANA
20:00 23.3 15.9 63 0.0 LegendMM LegendMM   99.40 28   LegendNANA
21:00 23.0 16.2 65 0.0 LegendMM LegendMM   99.45 28   LegendNANA
22:00 21.9 16.7 72 0.0 LegendMM LegendMM   99.47 27   LegendNANA
23:00 21.7 16.4 72 0.0 LegendMM LegendMM   99.50 27   LegendNANA

Notes on Data Quality.

Legend

  • E = Estimated
  • M = Missing
  • NA = Not Available*
  • [empty] = Indicates an unobserved value
Date modified: